Weather History for KEBG - November, 2012

Change the Weather History Date:

Wednesday, November 28, 2012

  Actual Average (KMFE) Record (KMFE)
Temperature  
Mean Temperature 62 °F 66 °F  
Max Temperature 75 °F 76 °F 93 °F (1949)
Min Temperature 50 °F 55 °F 35 °F (1896)
Degree Days  
Heating Degree Days 2 3  
Month to date heating degree days 49  
Since 1 July heating degree days 54  
Cooling Degree Days 0 4  
Month to date cooling degree days 179  
Year to date cooling degree days 4361  
Growing Degree Days 12 (Base 50)    
Moisture  
Dew Point 51 °F    
Average Humidity 70    
Maximum Humidity 90    
Minimum Humidity 41    
Precipitation  
Precipitation 0.00 in 0.03 in 0.82 in (1952)
Month to date precipitation 0.84  
Year to date precipitation 20.96  
Sea Level Pressure  
Sea Level Pressure 30.32 in    
Wind  
Wind Speed 5 mph (NNE)    
Max Wind Speed 10 mph    
Max Gust Speed -    
Visibility 7 miles    
Events      
T = Trace of Precipitation, MM = Missing Value Source: NWS Daily Summary

Daily Weather History Graph

Daily Weather History Graph

Search for Another Location

Airport or City:

Trip Planner

Search our weather history database for the weather conditions in past years. The results will help you decide how hot, cold, wet, or windy it might be!

Date:

Astronomy

Nov. 28, 2012 Rise Set
Actual Time 7:01 AM CST 5:39 PM CST
Civil Twilight 6:36 AM CST 6:04 PM CST
Nautical Twilight 6:08 AM CST 6:33 PM CST
Astronomical Twilight 5:40 AM CST 7:01 PM CST
Moon 5:56 PM CST (11/28) 7:00 AM CST (11/28)
Length of Visible Light 11h 28m
Length of Day
10h 38m
Full, 100% of the Moon is Illuminated
Nov 28
Full
Dec 6
Last Quarter
Dec 13
New
Dec 19
First Quarter
Dec 28
Full

Hourly Weather History & Observations

Time (CST) Temp. Dew Point Humidity Pressure Visibility Wind Dir Wind Speed Gust Speed Precip Events Conditions
12:15 AM 56.1 °F 49.1 °F 77% 30.33 in 10.0 mi North 5.8 mph - N/A   Clear
12:35 AM 55.8 °F 49.3 °F 79% 30.32 in 10.0 mi North 5.8 mph - N/A   Clear
12:55 AM 55.4 °F 49.1 °F 79% 30.32 in 10.0 mi North 4.6 mph - N/A   Clear
1:15 AM 55.4 °F 49.1 °F 79% 30.32 in 10.0 mi North 5.8 mph - N/A   Clear
1:35 AM 55.4 °F 48.6 °F 78% 30.32 in 10.0 mi North 5.8 mph - N/A   Clear
1:55 AM 55.0 °F 48.2 °F 78% 30.32 in 7.0 mi North 6.9 mph - N/A   Clear
2:15 AM 55.0 °F 47.8 °F 77% 30.32 in 7.0 mi North 3.5 mph - N/A   Clear
2:55 AM 54.1 °F 47.5 °F 78% 30.32 in 10.0 mi North 3.5 mph - N/A   Clear
3:15 AM 53.4 °F 47.5 °F 80% 30.32 in 7.0 mi NNW 4.6 mph - N/A   Clear
3:35 AM 52.7 °F 47.7 °F 83% 30.32 in 7.0 mi NNW 5.8 mph - N/A   Clear
3:55 AM 52.3 °F 47.3 °F 83% 30.32 in 10.0 mi Calm Calm - N/A   Clear
4:15 AM 52.0 °F 46.9 °F 83% 30.33 in 7.0 mi NNW 4.6 mph - N/A   Clear
4:35 AM 51.6 °F 46.6 °F 83% 30.32 in 7.0 mi NNW 4.6 mph - N/A   Clear
4:55 AM 51.3 °F 46.4 °F 83% 30.32 in 7.0 mi North 3.5 mph - N/A   Clear
5:15 AM 50.9 °F 46.2 °F 84% 30.33 in 5.0 mi NNW 8.1 mph - N/A   Haze
5:35 AM 50.9 °F 45.9 °F 83% 30.33 in 7.0 mi North 8.1 mph - N/A   Clear
5:55 AM 50.9 °F 45.5 °F 82% 30.34 in 7.0 mi NNW 6.9 mph - N/A   Clear
6:15 AM 50.4 °F 45.1 °F 82% 30.35 in 7.0 mi North 5.8 mph - N/A   Clear
6:35 AM 50.4 °F 45.1 °F 82% 30.36 in 10.0 mi North 8.1 mph - N/A   Clear
6:55 AM 50.2 °F 45.0 °F 82% 30.37 in 10.0 mi North 5.8 mph - N/A   Clear
7:15 AM 50.0 °F 44.8 °F 82% 30.38 in 10.0 mi Calm Calm - N/A   Clear
7:35 AM 50.0 °F 45.0 °F 83% 30.39 in 7.0 mi NNW 5.8 mph - N/A   Clear
7:55 AM 50.9 °F 45.3 °F 81% 30.39 in 7.0 mi North 5.8 mph - N/A   Clear
8:15 AM 52.0 °F 45.7 °F 79% 30.39 in 7.0 mi North 8.1 mph - N/A   Clear
8:35 AM 53.6 °F 46.4 °F 77% 30.40 in 10.0 mi North 5.8 mph - N/A   Clear
8:55 AM 54.9 °F 46.8 °F 74% 30.41 in 7.0 mi North 5.8 mph - N/A   Clear
9:15 AM 56.5 °F 47.5 °F 72% 30.41 in 7.0 mi North 6.9 mph - N/A   Clear
9:35 AM 57.9 °F 48.2 °F 70% 30.41 in 7.0 mi North 6.9 mph - N/A   Clear
9:55 AM 60.3 °F 49.5 °F 68% 30.41 in 7.0 mi NNE 5.8 mph - N/A   Clear
10:15 AM 61.5 °F 50.0 °F 66% 30.41 in 7.0 mi NNE 4.6 mph - N/A   Clear
10:35 AM 63.5 °F 50.7 °F 63% 30.41 in 7.0 mi NNE 5.8 mph - N/A   Clear
10:55 AM 65.1 °F 51.8 °F 62% 30.40 in 7.0 mi NNE 5.8 mph - N/A   Clear
11:15 AM 66.4 °F 52.0 °F 60% 30.40 in 5.0 mi North 4.6 mph - N/A   Haze
11:35 AM 67.8 °F 50.9 °F 55% 30.39 in 5.0 mi NNE 4.6 mph - N/A   Haze
11:55 AM 68.9 °F 50.5 °F 52% 30.39 in 5.0 mi Calm Calm - N/A   Haze
12:15 PM 69.1 °F 49.6 °F 50% 30.38 in 7.0 mi Calm Calm - N/A   Clear
12:35 PM 69.8 °F 49.3 °F 48% 30.36 in 7.0 mi Calm Calm - N/A   Clear
12:55 PM 70.7 °F 49.3 °F 47% 30.35 in 7.0 mi Calm Calm - N/A   Clear
1:15 PM 71.6 °F 49.3 °F 45% 30.33 in 5.0 mi Calm Calm - N/A   Haze
1:35 PM 71.8 °F 48.7 °F 44% 30.31 in 7.0 mi Calm Calm - N/A   Clear
1:55 PM 72.0 °F 49.3 °F 45% 30.30 in 7.0 mi Calm Calm - N/A   Clear
2:15 PM 73.2 °F 49.3 °F 43% 30.29 in 7.0 mi ENE 3.5 mph - N/A   Clear
2:35 PM 73.0 °F 49.5 °F 43% 30.28 in 7.0 mi ENE 4.6 mph - N/A   Clear
2:55 PM 73.8 °F 49.3 °F 42% 30.28 in 5.0 mi Calm Calm - N/A   Haze
3:15 PM 74.3 °F 49.8 °F 42% 30.27 in 7.0 mi Calm Calm - N/A   Clear
3:35 PM 75.0 °F 50.0 °F 41% 30.26 in 7.0 mi ENE 3.5 mph - N/A   Clear
3:55 PM 75.2 °F 51.1 °F 43% 30.26 in 5.0 mi NE 4.6 mph - N/A   Haze
4:15 PM 75.2 °F 52.9 °F 46% 30.26 in 5.0 mi East 6.9 mph - N/A   Haze
4:35 PM 74.1 °F 52.5 °F 47% 30.26 in 7.0 mi East 5.8 mph - N/A   Clear
4:55 PM 73.4 °F 54.3 °F 51% 30.26 in 7.0 mi East 9.2 mph - N/A   Clear
5:15 PM 72.5 °F 54.5 °F 53% 30.26 in 7.0 mi East 10.4 mph - N/A   Clear
5:55 PM 69.4 °F 55.4 °F 61% 30.26 in 7.0 mi East 9.2 mph - N/A   Clear
6:15 PM 68.5 °F 55.9 °F 64% 30.26 in 7.0 mi East 10.4 mph - N/A   Clear
6:35 PM 67.8 °F 56.7 °F 67% 30.26 in 7.0 mi East 10.4 mph - N/A   Clear
6:55 PM 66.9 °F 57.2 °F 71% 30.27 in 7.0 mi East 9.2 mph - N/A   Clear
7:15 PM 66.2 °F 57.2 °F 73% 30.27 in 7.0 mi East 8.1 mph - N/A   Clear
7:55 PM 64.8 °F 57.2 °F 76% 30.28 in 7.0 mi East 5.8 mph - N/A   Clear
8:15 PM 63.7 °F 56.8 °F 78% 30.28 in 10.0 mi ENE 4.6 mph - N/A   Clear
8:35 PM 63.0 °F 56.8 °F 80% 30.28 in 7.0 mi ENE 3.5 mph - N/A   Clear
8:55 PM 62.6 °F 57.2 °F 82% 30.29 in 7.0 mi NE 4.6 mph - N/A   Clear
9:15 PM 62.1 °F 56.8 °F 83% 30.29 in 7.0 mi NE 4.6 mph - N/A   Clear
9:35 PM 61.7 °F 56.8 °F 84% 30.29 in 7.0 mi NE 4.6 mph - N/A   Clear
9:55 PM 61.7 °F 57.2 °F 85% 30.29 in 7.0 mi NE 4.6 mph - N/A   Clear
10:15 PM 61.2 °F 57.0 °F 86% 30.29 in 5.0 mi NE 4.6 mph - N/A   Clear
10:35 PM 60.8 °F 57.0 °F 87% 30.28 in 5.0 mi NE 4.6 mph - N/A   Clear
10:55 PM 60.8 °F 57.2 °F 88% 30.28 in 5.0 mi NE 5.8 mph - N/A   Clear
11:15 PM 60.4 °F 56.8 °F 88% 30.27 in 5.0 mi NE 4.6 mph - N/A   Clear
11:35 PM 59.9 °F 56.7 °F 89% 30.26 in 5.0 mi ENE 3.5 mph - N/A   Clear
11:55 PM 59.4 °F 56.3 °F 90% 30.25 in 5.0 mi Calm Calm - N/A   Clear